Weather in Jekabpils

Latvia     56˚29′52″N   25˚52′00″E
temp.,
°C
wind,
m/s
gust,
m/s
humid.,
%
clouds,
%
prec.,
mm/h
давл.,
hPa
HPBL,
m
27 november, fri
fri2723:00+4˚sw41092100 0.4 1009510
02:00+4˚sw4994100 1.1 1008392
05:00+4˚w2696100 2.3 1008290
08:00+3˚nnw3987100 2.9 1008588
11:00+3˚nw497929 0.1 10101237
14:00+2˚nnw477663 0.2 1011993
17:00nnw379298 0.2 1012588
20:00nnw378799 0.2 1014641
28 november, sat
sat2823:00+1˚nne3679100 0.0 1015817
02:00−1˚n389080 0.0 1017446
05:00n3108756 0.0 1017508
08:00+1˚n4108676 0.0 1019567
11:00+2˚nne4887100 0.0 1019725
14:00+1˚ne4892100 0.3 1020707
17:00+1˚ne4893100 0.1 1021714
20:00ne499397 0.2 1023623
29 november, sun
sun2923:00ene478799 0.1 1023707
02:00−1˚ne389295 0.1 1024463
05:00ene379298 0.2 1024381
08:00−1˚ne369295 0.2 1024323
11:00ene369082 0.1 1024508
14:00+1˚ne358291 0.1 1024554
17:00−1˚nne289252 0.0 1023393
20:00nne378563 0.0 1022661
30 november, mon
mon3023:00−1˚n3894100 0.1 1021469
02:00−1˚nnw3796100 1.5 1020431
05:00−1˚nnw3795100 1.3 1019374
08:00−1˚nw2597100 2.6 1019281
11:00wnw3596100 1.3 1019325
14:00wnw379699 1.9 1020515
17:00wsw4988100 0.8 1020603
20:00−1˚sw499497 0.8 1021462
1 december, tue
tue123:00−1˚ssw51196100 0.4 1021606
02:00+1˚ssw51197100 1.0 1021681
05:00ssw51396100 0.3 1020739
08:00ssw51196100 1.7 1019729
11:00ssw51096100 0.7 1019652
14:00ssw4997100 1.1 1019647
17:00s3997100 0.4 1019631
20:00−1˚s4996100 0.7 1019553